www.pogodaiklimat.ru

Погода и климат >> Архив погоды >> Казахстан >> Астана


АРХИВ ПОГОДЫ в Астане

Время (UTC), дата Ветер
(напр.,м/с)
 
Видим.   Явления Облачность Т
(С)
Тd
(С)
f
(%)
Тe
(С)
Тes
(С)
Комфортность P
(гПа)
Po
(гПа)
Тmin
(С)
Tmax
(С)
R
(мм)
R24
(мм)
S
(см)
09 19.07 З 1 10 км гроза без осадков 8/8 1000 м
[Cb calv]
+24.2 +11.5 45 +26 +29 жарко 1013.6 974.1
12 19.07 З 1 10 км осадки на расстоянии {гроза} 8/5 1000 м
[Cb cap Ci ing]
+25.7 +12.9 45 +28 +30 жарко 1012.9 973.6
15 19.07 ЮЗ 1 10 км гроза без осадков 10/8 1000 м
[Cb cap Ci]
+22.1 +11.8 52 +24 +24 комфорт 1014.3 974.5 +27.7
18 19.07 штиль 0 н/о {гроза} ясно +17.7 +12.2 70 +18 +18 по сезону 1015.0 974.6 +27.7
21 19.07 штиль 0 н/о ясно +13.9 +13.1 95 +13 +13 прохладно 1015.3 974.4
00 20.07 штиль 0 10 км ясно +13.3 +13.0 98 +13 +13 прохладно 1015.6 974.6
03 20.07 З 1 10 км ясно +21.3 +13.2 60 +24 +31 комфорт 1015.0 975.1
06 20.07 З 2 10 км 9/8 1000 м
[Cb cap Ci fib]
+25.7 +12.5 44 +27 +30 жарко 1013.5 974.2 +12.8
09 20.07 З 4 10 км гроза без осадков 8/8 1000 м
[Cb cap]
+25.3 +11.1 41 +27 +28 жарко 1012.7 973.4
12 20.07 СЗ 2 10 км {гроза} 9/4 1000 м
[Cb cap Ac lent Ci fib]
+26.1 +10.7 38 +27 +29 жарко 1012.4 973.2
15 20.07 СЗ 1 10 км 6/4 1000 м
[Sc diur, vesp Ci fib]
+23.1 +10.2 44 +25 +25 комфорт 1012.4 972.8 +27.4
18 20.07 штиль 0 н/о ясно +17.9 +11.7 67 +18 +18 по сезону 1013.2 972.9 +27.4
21 20.07 штиль 0 н/о ясно +16.8 +13.3 80 +17 +17 по сезону 1012.9 972.5
00 21.07 штиль 0 10 км 8/8
[Sc]
+16.5 +12.8 79 +16 +16 по сезону 1013.3 972.8
03 21.07 ЮЗ 2 10 км 8/3 1000 м
[Sc Ci ing]
+21.9 +13.8 60 +25 +29 комфорт 1012.8 973.1
06 21.07 З 1 10 км 10/4 1000 м
[Cu med, cong Ci]
+24.0 +14.1 54 +26 +35 жарко 1012.0 972.6 +14.6
09 21.07 З 5 10 км 10/8 600 м
[Cb cap Ci ing]
+21.2 +13.6 62 +24 +25 комфорт 1012.7 972.9
12 21.07 З 3 10 км в посл. час ливневой дождь 9/4 1000 м
[Cu med, cong Ac lent]
+22.5 +13.0 55 +25 +26 комфорт 1012.5 972.8
15 21.07 штиль 0 10 км 8/3 1000 м
[Sc diur, vesp Ac lent Ci fib]
+21.0 +13.2 61 +23 +23 комфорт 1012.7 972.8 +26.5
18 21.07 штиль 0 н/о ясно +18.1 +13.8 76 +18 +18 по сезону 1013.3 973.0 +26.5 0.0
21 21.07 штиль 0 н/о ясно +14.4 +13.6 95 +14 +14 прохладно 1013.4 972.6
00 22.07 штиль 0 10 км 3/0
[Ci fib]
+13.0 +12.5 97 +12 +13 прохладно 1014.4 973.4
03 22.07 штиль 0 10 км 3/0
[Ci fib]
+21.1 +15.0 68 +24 +32 комфорт 1013.9 974.0
06 22.07 З 1 10 км 4/4 1500 м
[Cu med, cong]
+25.2 +11.0 41 +26 +37 жарко 1013.5 974.1 +12.8
09 22.07 З 2 10 км 8/5 1500 м
[Cu med, cong Ci fib]
+26.7 +11.2 38 +28 +34 жарко 1012.7 973.5
12 22.07 З 2 10 км 8/4 1000 м
[Sc diur, vesp Ac lent]
+26.8 +10.1 35 +27 +29 жарко 1012.0 972.9
15 22.07 С 1 10 км 10/4 1000 м
[Sc diur, vesp Ac As Ci]
+24.2 +11.5 45 +26 +26 жарко 1012.4 972.9 +28.8
18 22.07 штиль 0 н/о ясно +20.0 +11.5 58 +21 +21 комфорт 1012.4 972.4 +28.8
21 22.07 штиль 0 н/о ясно +16.2 +12.0 76 +16 +16 по сезону 1012.6 972.1
00 23.07 Ю 1 10 км 6/0
[Ac As]
+18.2 +12.2 68 +20 +20 тепло 1011.7 971.5
03 23.07 Ю 1 10 км 3/0
[Ci fib]
+22.9 +12.8 53 +26 +32 жарко 1011.4 971.8
06 23.07 Ю 1 10 км 3/0
[Ci fib]
+28.4 +7.6 27 +28 +44 жарко 1009.8 970.9 +14.9
09 23.07 Ю 1 10 км 3/0
[Ci fib]
+30.6 +10.6 29 +31 +46 жарко 1008.6 970.1
12 23.07 Ю 1 10 км 4/0
[Ac trans Ci fib]
+31.6 +9.8 26 +31 +35 жарко 1007.4 969.0
15 23.07 штиль 0 10 км 6/3 1500 м
[Sc diur, vesp Ci fib]
+29.2 +9.9 30 +29 +29 жарко 1006.6 968.0 +32.4
18 23.07 Ю 1 н/о ясно +25.2 +11.0 41 +26 +26 жарко 1006.0 966.9 +32.4
21 23.07 Ю 4 н/о ясно +24.6 +9.7 39 +25 +25 комфорт 1005.0 965.9
00 24.07 Ю 4 10 км 10/0
[Ci fib]
+23.0 +10.4 45 +25 +25 комфорт 1002.3 963.1
03 24.07 Ю 3 10 км 9/0
[Ac cast Ci sp]
+25.6 +11.4 41 +27 +30 жарко 1001.4 962.5
06 24.07 С 3 10 км ясно +30.1 +13.0 35 +31 +44 жарко 1001.7 963.4 +22.7
09 24.07 С 4 10 км 3/0
[Ci fib]
+30.6 +14.3 37 +32 +41 жарко 1002.6 964.4
12 24.07 СЗ 2 10 км 9/0
[Ci sp]
+28.8 +10.0 31 +29 +33 жарко 1003.8 965.2
15 24.07 С 2 10 км 3/0
[Ci fib]
+24.9 +11.5 43 +26 +26 жарко 1005.2 966.1 +31.6
18 24.07 СВ 1 н/о ясно +20.3 +12.3 60 +23 +23 комфорт 1006.7 967.0 +31.6
21 24.07 СВ 2 н/о ясно +18.7 +11.5 63 +20 +20 тепло 1007.0 967.0
00 25.07 штиль 0 10 км 3/0
[Ci fib]
+15.9 +11.7 76 +16 +16 тепло 1007.7 967.3
03 25.07 ЮВ 1 10 км 8/0
[Ci]
+22.9 +11.9 50 +25 +31 комфорт 1006.1 966.7
06 25.07 ЮЗ 1 10 км 8/0
[Ac lent Ci fib]
+26.7 +11.6 39 +28 +41 жарко 1004.7 965.9 +15.6
09 25.07 З 2 10 км 8/3 1000 м
[Cb cap Ci]
+29.5 +11.1 32 +30 +38 жарко 1004.8 966.3
12 25.07 ЮВ 2 10 км {ливн. осадки} 9/0
[Ac lent Ci fib]
+30.0 +10.6 30 +30 +32 жарко 1002.0 963.7
15 25.07 В 1 10 км в посл. час ливневой дождь 9/9 1000 м
[Cb cap]
+27.8 +11.8 37 +29 +29 жарко 1001.7 963.1 +31.5
18 25.07 В 3 н/о {ливн. осадки} 9/9 1000 м
[Sc]
+26.8 +12.8 42 +28 +28 жарко 1001.4 962.7 +31.5 0.1
21 25.07 ЮВ 2 н/о 9/6 1000 м
[Cb cap Ac lent]
+24.9 +12.5 46 +27 +27 жарко 1000.2 961.3
00 26.07 Ю 2 10 км 10/0
[Cs]
+24.2 +11.9 46 +26 +26 жарко 999.2 960.3
03 26.07 Ю 3 10 км ясно +25.9 +12.7 44 +28 +33 жарко 999.0 960.3

 

Местоположение метеостанции Астана (город Астана, Казахстан): широта 51.13 долгота 71.37 высота над уровнем моря 350 м.

В архиве по умолчанию представлена погода в Астане за последнюю неделю. Архивные данные за месяц целиком и за предыдущие месяцы, начиная с января 2011 года, Вы можете получить, выбрав интересующий диапазон дат из раскрывающегося списка и нажав кнопку "Ввод!".

Внимание! Время в таблицах - всемирное. Для получения местного времени необходимо прибавить поправку, которая в Астане равна 6 ч.

Смотрите также архив погоды в соседних городах и на ближайших метеорологических станциях:

Погода в Астане 2 (город Астана, Казахстан) (4 км)
Погода в Арнасае (Акмолинская область, Казахстан) (51 км)
Погода в Шортанды (Акмолинская область, Казахстан) (65 км)
Погода в Аршалы (Акмолинская область, Казахстан) (73 км)
Погода в Новомарковке (Акмолинская область, Казахстан) (92 км)
Погода в Киевке (Карагандинская область, Казахстан) (99 км)
Погода в Акколе (Акмолинская область, Казахстан) (101 км)
Погода в Осакаровке (Карагандинская область, Казахстан) (105 км)
Погода в Кургальджин (Акмолинская область, Казахстан) (114 км)
Погода в Жалтыре (Акмолинская область, Казахстан) (122 км)

Пояснения к столбцам:

Ветер - указаны скорость ветра в м/с - средняя за 10 мин, порывы в срок и между сроками (в фигурных скобках) и направление, откуда дует ветер: С - северный, СВ - северо-восточный, В - восточный, ЮВ - юго-восточный, Ю - южный, ЮЗ - юго-западный, З - западный, СЗ - северо-западный.
Видимость - горизонтальная дальность видимости в метрах или километрах. При видимости от 1 до 10 км при отсутствии осадков обычно наблюдается дымка, при ухудшении видимости до 1 км и менее - туман. В сухую погоду видимость может ухудшаться дымом, пылью или мглою.
Явления - указаны атмосферные явления, наблюдавшиеся в срок или в последний час перед сроком; фигурными скобками обозначены явления, наблюдавшиеся между сроками (за 1-3 часа до срока); квадратными скобками обозначены град или гололедные отложения с указанием их диаметра в мм.
Облачность - указаны через наклонную черту общая и нижняя облачность в баллах и высота нижней границы облаков в метрах; квадратными скобками обозначены формы облаков: Ci - перистые, Cs - перисто-слоистые, Cc - перисто-кучевые, Ac - высококучевые, As - высокослоистые, Sc - слоисто-кучевые, Ns - слоисто-дождевые, Cu - кучевые, Cb - кучево-дождевые. Подробнее классификацию облаков см. в Атласе облаков (PDF).
T - Температура воздуха - температура, измеренная на высоте 2 м над землей.
Td - Температура точки росы - температура, при понижении до которой содержащийся в воздухе водяной пар достигнет насыщения.
f - Относительная влажность воздуха - влажноcть воздуха, измеренная на высоте 2 м над землей.
Te - Эффективная температура - температура, которую ощущает одетый по сезону человек в тени. Характеристика душности погоды. При расчете учитывается влияние влажности воздуха и скорости ветра на теплоощущения человека.
Tes - Эффективная температура на солнце - температура, которую ощущает человек, с поправкой на солнечный нагрев. Характеристика знойности погоды. Зависит от высоты солнца над горизонтом, облачности и скорости ветра. Ночью, в пасмурную погоду, а также при ветре 12 м/с и более поправка равна нулю.
P - Атмосферное давление - приведенное к уровню моря атмосферное давление.
Po - Атмосферное давление - измеренное на уровне метеостанции атмосферное давление.
Tmin - Минимальная температура - минимум температуры воздуха на высоте 2 м над землей.
Tmax - Максимальная температура - максимум температуры воздуха на высоте 2 м над землей.
R - Количество осадков - Количество выпавших осадков за период времени, мм. При наведении курсора мыши на число - период времени, за который выпало указанное количество осадков.
R24 - Количество осадков - Количество выпавших осадков за 24 часа, мм.
S - Снежный покров - Высота снежного покрова, см. При наведении курсора мыши на число - состояние снежного покрова и степень покрытия местности в баллах.